Location: DARK SKY Beskydy - Park tmavé oblohy, www.darkskybeskydy.cz
(49.4926°N, 18.5016°E)
Time: 04:36:21
(UTC+02:00)

A-11 Canister half - Pass Details

Date: 22 February 2024
Orbit: 1513 x 1686 km, 47.2° (Epoch: 24 April)

Event Time Altitude Azimuth Distance (km) Brightness Sun altitude
Rises 06:43:36 0° 279° (W) 4,904 - -0.8°
Exits shadow 06:43:51 - 279° (W) 4,826 10.9 -0.8°
Reaches altitude 10° 06:46:48 10° 278° (W) 3,898 10.5 -0.3°
Maximum altitude 06:56:39 70° 197° (SSW) 1,696 9.4 1.2°
Drops below altitude 10° 07:06:08 10° 117° (ESE) 3,755 13.4 2.6°
Sets 07:09:09 0° 115° (ESE) 4,717 14.5 3.1°
